[[{"header":{"parameterUnit":"m.s-1","parameterCategory":2,"la1":30.2991,"la2":30.254,"lo1":-89.0895,"lo2":-89.0444,"dy":0.0017,"dx":0.0017,"nx":28,"ny":28,"refTime":"2025-06-10T21:00:00:Z","depth":"0","parameterNumber":2,"parameterNumberName":"U-component_of_CURRENTS"},"data":[0,0,0,0,0,0,0,0,0,0,0,0,0,0,0,0,0,0,0,0,0,0,0,0,0,0,0,0,0,0,0,0,0,0,0,0,0,0,0,0,0,0,0,0,0,0,0,0,0,0,0,0,0,0,0,0,0,0,-0.2865,-0.2867,0,-0.304,-0.3042,-0.3043,-0.3045,-0.3043,-0.3041,-0.3039,-0.2992,-0.2993,-0.2993,0,0,0,0,0,0,0,0,0,0,0,0,0,-0.2629,-0.2632,-0.2865,-0.2867,-0.287,-0.304,-0.3042,-0.3044,-0.3045,-0.3043,-0.3041,-0.3039,-0.2992,-0.2993,-0.2993,0,0,0,0,0,0,0,0,0,0,0,0,0,-0.2756,-0.2633,-0.2864,-0.2894,-0.2899,-0.3039,-0.3042,-0.3044,-0.3046,-0.3043,-0.304,-0.3038,-0.2992,-0.2993,-0.2993,-0.3052,0,0,-0.2995,-0.2996,0,0,0,0,0,0,0,0,-0.2748,-0.2764,-0.2887,-0.2893,-0.2898,-0.3022,-0.2942,-0.3037,-0.3046,-0.2985,-0.3039,-0.3036,-0.2986,-0.2987,-0.3023,-0.305,-0.3048,-0.2995,-0.2996,-0.2996,-0.2996,0,0,0,0,0,0,0,-0.2739,-0.2757,-0.293,-0.289,-0.2897,-0.2933,-0.2946,-0.2961,-0.2991,-0.299,-0.2992,-0.3019,-0.2987,-0.3023,-0.3022,-0.3048,-0.2995,-0.2996,-0.2996,-0.2997,-0.3112,-0.3114,0,0,0,0,0,0,-0.2726,-0.2749,-0.2924,-0.2935,-0.282,-0.2939,-0.2954,-0.2981,-0.2996,-0.2999,-0.3022,-0.3019,-0.3023,-0.3021,-0.302,-0.3037,-0.2996,-0.2997,-0.2997,-0.3109,-0.3112,-0.3115,0,0,0,0,0,0,-0.272,-0.274,-0.2917,-0.2849,-0.2874,-0.2946,-0.2976,-0.2986,-0.3021,-0.3023,-0.302,-0.3046,-0.3021,-0.3019,-0.3044,-0.3036,-0.2997,-0.2998,-0.3106,-0.311,-0.3114,-0.3105,0,0,0,0,0,0,-0.2712,-0.2736,-0.2743,-0.2848,-0.2878,-0.3023,-0.298,-0.2992,-0.3045,-0.3043,-0.3044,-0.3037,-0.3019,-0.3043,-0.3044,-0.3036,-0.2998,-0.3103,-0.3108,-0.3113,-0.3102,-0.3108,-0.3113,0,0,0,0,0,-0.2703,-0.2751,-0.2742,-0.2763,-0.2887,-0.3026,-0.3046,-0.3083,-0.3048,-0.3096,-0.308,-0.3037,-0.3075,-0.3047,-0.3047,-0.3039,-0.31,-0.3107,-0.3112,-0.3099,-0.3107,-0.3113,0,0,0,0,0,0,-0.2658,-0.2759,-0.2751,-0.2824,-0.2918,-0.3028,-0.3077,-0.3094,-0.3126,-0.3107,-0.3076,-0.3072,-0.3097,-0.309,-0.3059,-0.3096,-0.308,-0.3086,-0.307,-0.3077,-0.3082,-0.304,-0.2999,0,0,0,0,0,-0.2648,-0.2696,-0.2807,-0.2859,-0.2911,-0.2986,-0.3039,-0.3076,-0.3126,-0.3139,-0.3131,-0.3124,-0.3131,-0.3118,-0.3144,-0.3158,-0.3117,-0.3158,-0.3164,-0.3168,-0.3142,-0.3097,-0.3093,-0.3135,-0.3135,-0.3135,0,0,-0.2639,-0.2702,-0.2725,-0.285,-0.2917,-0.2997,-0.3011,-0.3118,-0.3145,-0.3126,-0.3145,-0.3159,-0.3151,-0.3172,-0.3179,-0.3151,-0.3142,-0.3176,-0.3179,-0.3149,-0.3102,-0.3097,-0.3092,-0.3139,-0.3138,-0.3138,0,0,-0.2682,-0.2711,-0.2779,-0.2856,-0.2977,-0.3023,-0.3053,-0.3168,-0.3179,-0.3241,-0.3207,-0.3208,-0.3251,-0.3209,-0.3198,-0.3255,-0.3194,-0.3281,-0.3239,-0.3198,-0.3191,-0.3185,-0.3135,-0.3125,-0.3257,-0.3257,-0.3257,0,-0.2661,-0.2737,-0.2824,-0.2915,-0.2943,-0.3027,-0.3086,-0.3143,-0.3235,-0.3223,-0.3251,-0.3264,-0.3256,-0.3209,-0.3228,-0.3255,-0.3229,-0.32,-0.3196,-0.319,-0.3183,-0.3134,-0.3122,-0.3257,-0.3257,-0.3257,-0.3257,0,-0.2766,-0.2804,-0.2861,-0.2955,-0.3019,-0.3091,-0.317,-0.3214,-0.3231,-0.3259,-0.3268,-0.3282,-0.3263,-0.3276,-0.3265,-0.3213,-0.3209,-0.3222,-0.3157,-0.3177,-0.3126,-0.3114,-0.3257,-0.3257,-0.3257,-0.3257,0,0,-0.2746,-0.2891,-0.29,-0.2909,-0.3021,-0.3084,-0.3128,-0.3172,-0.3166,-0.3247,-0.3217,-0.3237,-0.3233,-0.322,-0.3203,-0.316,-0.31,-0.3166,-0.3164,-0.3078,-0.3,-0.2911,-0.2889,-0.3111,-0.3109,-0.3107,-0.2982,0,-0.277,-0.2877,-0.2949,-0.2994,-0.303,-0.3083,-0.3107,-0.3155,-0.3188,-0.32,-0.3194,-0.3195,-0.3213,-0.3199,-0.316,-0.3131,-0.3068,-0.3132,-0.3027,-0.3023,-0.2908,-0.2871,-0.2732,-0.2601,-0.297,-0.2968,-0.2966,0,-0.2838,-0.2869,-0.2916,-0.2946,-0.2971,-0.3007,-0.3002,-0.3051,-0.3086,-0.3115,-0.3112,-0.3134,-0.3078,-0.3113,-0.3022,-0.3068,-0.302,-0.2997,-0.2992,-0.2891,-0.2909,-0.2645,-0.2564,-0.2563,-0.2947,-0.2948,-0.295,0,-0.2746,-0.2839,-0.2834,-0.2854,-0.2928,-0.2925,-0.2954,-0.3001,-0.3019,-0.3044,-0.3059,-0.3034,-0.3017,-0.2974,-0.2945,-0.2977,-0.2853,-0.2889,-0.2751,-0.2745,-0.2592,-0.2575,-0.2454,-0.2791,-0.2791,-0.2792,-0.2792,0,-0.2722,-0.273,-0.2786,-0.2782,-0.2757,-0.2845,-0.2837,-0.288,-0.2929,-0.2928,-0.299,-0.2972,-0.2985,-0.2939,-0.2909,-0.2783,-0.2814,-0.2709,-0.2691,-0.2591,-0.2576,-0.2542,-0.2598,-0.2787,-0.2788,-0.2789,-0.279,0,-0.2653,-0.2706,-0.269,-0.2712,-0.2724,-0.2704,-0.2772,-0.2775,-0.2844,-0.2843,-0.2847,-0.2902,-0.2833,-0.2823,-0.2744,-0.271,-0.2565,-0.256,-0.244,-0.2408,-0.2274,-0.2337,-0.2202,-0.2133,-0.2371,-0.2368,-0.2365,0,-0.2647,-0.2621,-0.2601,-0.2578,-0.2587,-0.2591,-0.26,-0.2701,-0.2718,-0.2783,-0.2763,-0.2734,-0.2668,-0.2542,-0.2459,-0.2341,-0.2399,-0.2179,-0.2201,-0.2204,-0.2262,-0.2336,-0.2294,-0.2005,-0.2,-0.1995,-0.1992,0,-0.2551,-0.2527,-0.2481,-0.2428,-0.2417,-0.2425,-0.2453,-0.2461,-0.2568,-0.2577,-0.2559,-0.2513,-0.2399,-0.223,-0.2116,-0.2044,-0.2131,-0.2082,-0.2106,-0.196,-0.2009,-0.1954,-0.2171,-0.1952,-0.1956,-0.1959,-0.1961,-0.1963,-0.2446,-0.2363,-0.2288,-0.2232,-0.2234,-0.2225,-0.218,-0.2232,-0.2231,-0.2206,-0.2293,-0.2185,-0.2099,-0.1896,-0.182,-0.1682,-0.1795,-0.1656,-0.1729,-0.1801,-0.1731,-0.1854,-0.1614,-0.1616,-0.1618,-0.1619,-0.162,0,-0.2274,-0.2188,-0.2114,-0.2033,-0.1981,-0.2047,-0.2048,-0.1981,-0.191,-0.194,-0.1892,-0.181,-0.164,-0.1591,-0.1457,-0.1381,-0.1366,-0.1379,-0.1454,-0.1425,-0.1516,-0.1496,-0.1194,-0.1194,-0.1194,-0.1194,-0.1194,-0.1194,-0.2163,-0.2017,-0.1956,-0.179,-0.1758,-0.1642,-0.1604,-0.1533,-0.1519,-0.1416,-0.1399,-0.1398,-0.1404,-0.1514,-0.1385,-0.1299,-0.1315,-0.126,-0.1335,-0.143,-0.1463,-0.1494,-0.1486,-0.1186,-0.1186,-0.1154,-0.1154,-0.1154]},{"header":{"parameterUnit":"m.s-1","parameterCategory":2,"la1":30.2991,"la2":30.254,"lo1":-89.0895,"lo2":-89.0444,"dy":0.0017,"dx":0.0017,"nx":28,"ny":28,"refTime":"2025-06-10T21:00:00:Z","depth":"0","parameterNumber":3,"parameterNumberName":"V-component_of_CURRENTS"},"data":[0,0,0,0,0,0,0,0,0,0,0,0,0,0,0,0,0,0,0,0,0,0,0,0,0,0,0,0,0,0,0,0,0,0,0,0,0,0,0,0,0,0,0,0,0,0,0,0,0,0,0,0,0,0,0,0,0,0,-0.0125,-0.0123,0,0.0098,0.0101,0.0104,0.018,0.0178,0.0177,0.0175,0.0446,0.0454,0.0462,0,0,0,0,0,0,0,0,0,0,0,0,0,-0.0228,-0.0228,-0.0125,-0.0123,-0.0121,0.0097,0.0101,0.0105,0.018,0.0178,0.0176,0.0175,0.0443,0.0453,0.0463,0,0,0,0,0,0,0,0,0,0,0,0,0,-0.0106,-0.0228,-0.0126,-0.0062,-0.0055,0.0097,0.0101,0.0106,0.0181,0.0178,0.0176,0.0174,0.0439,0.0452,0.0465,0.0591,0,0,0.0504,0.051,0,0,0,0,0,0,0,0,-0.0114,-0.0102,-0.0074,-0.0066,-0.0058,0.0103,0.0164,0.0268,0.0181,0.0099,0.0175,0.0173,0.0332,0.0354,0.041,0.0604,0.0615,0.0505,0.0513,0.0519,0.0522,0,0,0,0,0,0,0,-0.0123,-0.011,-0.003,-0.0071,-0.0062,0.0043,0.0056,0.0185,0.0232,0.0106,0.011,0.0124,0.0338,0.0398,0.0417,0.0619,0.0505,0.0517,0.0525,0.053,0.0768,0.0766,0,0,0,0,0,0,-0.0175,-0.0119,-0.0037,-0.0024,-0.01,0.0045,0.006,0.0059,0.023,0.0251,0.0126,0.0127,0.0377,0.0402,0.0427,0.0458,0.0519,0.0531,0.0538,0.0769,0.0767,0.0766,0,0,0,0,0,0,-0.0178,-0.017,-0.0046,-0.0071,-0.0049,0.0046,0.0047,0.0065,0.0114,0.0243,0.0267,0.0154,0.0376,0.0409,0.0498,0.0473,0.0537,0.0548,0.0771,0.0768,0.0766,0.0602,0,0,0,0,0,0,-0.0182,-0.0173,-0.0182,-0.0075,-0.005,0.002,0.0049,0.007,0.0124,0.0127,0.0277,0.0299,0.0377,0.0478,0.0511,0.0492,0.0559,0.0773,0.077,0.0767,0.061,0.0595,0.0582,0,0,0,0,0,-0.0187,-0.0201,-0.0184,-0.0173,-0.0069,0.002,0.0044,0.011,0.0127,0.0148,0.0224,0.0294,0.0482,0.0488,0.0527,0.0512,0.0774,0.077,0.0767,0.0616,0.0598,0.0583,0,0,0,0,0,0,-0.0244,-0.0191,-0.0171,-0.0168,-0.0092,0.0028,0.0056,0.0109,0.0195,0.0194,0.0308,0.0337,0.0398,0.0484,0.0487,0.0566,0.063,0.0634,0.0501,0.0485,0.0472,0.0432,0.0569,0,0,0,0,0,-0.0264,-0.0267,-0.0184,-0.0178,-0.0148,-0.0042,0.0005,0.0053,0.0138,0.0174,0.0265,0.0352,0.0424,0.0472,0.056,0.0636,0.0694,0.0639,0.0625,0.0613,0.0603,0.0659,0.0649,0.0755,0.0755,0.0755,0,0,-0.0283,-0.0256,-0.0255,-0.0191,-0.0125,-0.0095,-0.0018,0.0043,0.006,0.0194,0.0243,0.0325,0.0433,0.0485,0.0519,0.055,0.061,0.0609,0.0598,0.0595,0.0654,0.0644,0.0635,0.0753,0.0753,0.0754,0,0,-0.0324,-0.0299,-0.0313,-0.0264,-0.0188,-0.0126,-0.0118,-0.0008,0.003,0.0105,0.017,0.0224,0.0373,0.0413,0.046,0.0435,0.0536,0.0463,0.0371,0.0424,0.0416,0.0409,0.045,0.0448,0.0454,0.0454,0.0454,0,-0.035,-0.0363,-0.0296,-0.0292,-0.0268,-0.0157,-0.0156,-0.009,0.0028,0.0054,0.0088,0.0241,0.0328,0.0367,0.0335,0.0403,0.0451,0.0424,0.0405,0.04,0.0396,0.044,0.044,0.0446,0.0447,0.0447,0.0448,0,-0.0399,-0.0405,-0.0404,-0.0385,-0.0343,-0.0318,-0.0238,-0.0195,-0.0136,-0.007,-0.0007,0.0103,0.0187,0.021,0.0271,0.0276,0.0324,0.038,0.0441,0.0375,0.0426,0.0429,0.0434,0.0437,0.0439,0.0441,0,0,-0.0467,-0.0449,-0.045,-0.0458,-0.0394,-0.0363,-0.0347,-0.029,-0.0276,-0.0179,-0.0156,-0.0066,0.0001,0.0054,0.0134,0.0169,0.017,0.0248,0.0255,0.0278,0.0281,0.0343,0.0354,0.0228,0.0228,0.0228,0.032,0,-0.0524,-0.0563,-0.0532,-0.0556,-0.0563,-0.0484,-0.0476,-0.0413,-0.034,-0.0286,-0.019,-0.0126,-0.0059,-0.002,0.0019,0.0149,0.0175,0.014,0.0351,0.0357,0.0413,0.0358,0.0425,0.0515,0.0324,0.0325,0.0325,0,-0.0583,-0.0603,-0.065,-0.0649,-0.0644,-0.0642,-0.0608,-0.058,-0.0487,-0.0427,-0.0358,-0.0255,-0.0192,-0.0118,0.0031,0.001,0.0118,0.021,0.0217,0.0337,0.0426,0.0557,0.053,0.0728,0.0332,0.0331,0.0331,0,-0.0663,-0.0683,-0.0733,-0.073,-0.071,-0.0717,-0.0699,-0.0626,-0.0603,-0.0512,-0.0473,-0.0367,-0.0295,-0.0165,0.0029,0.0031,0.021,0.0247,0.0396,0.0402,0.0532,0.0549,0.0716,0.0335,0.0335,0.0335,0.0335,0,-0.074,-0.0773,-0.0774,-0.0797,-0.0843,-0.0796,-0.0815,-0.077,-0.0707,-0.068,-0.0552,-0.0497,-0.0301,-0.0158,-0.0002,0.0213,0.0191,0.0367,0.0427,0.0475,0.0485,0.0725,0.0794,0.0338,0.0338,0.0337,0.0336,0,-0.0812,-0.0817,-0.0866,-0.0876,-0.088,-0.0907,-0.0896,-0.0897,-0.0826,-0.0786,-0.0761,-0.0593,-0.0402,-0.0193,0.0044,0.0184,0.0507,0.0461,0.0497,0.0558,0.0858,0.0914,0.1121,0.1248,0.0615,0.0617,0.0619,0,-0.085,-0.0887,-0.093,-0.0963,-0.097,-0.0999,-0.1013,-0.0963,-0.0957,-0.0835,-0.0821,-0.0629,-0.0467,-0.0099,0.0184,0.0466,0.0617,0.0685,0.0692,0.0874,0.0981,0.1017,0.1111,0.0795,0.0798,0.08,0.0802,0,-0.0917,-0.0933,-0.0972,-0.1045,-0.108,-0.112,-0.1135,-0.115,-0.1075,-0.1005,-0.0874,-0.073,-0.0357,0.0011,0.0385,0.056,0.084,0.0742,0.0937,0.1129,0.1176,0.1327,0.0725,0.0824,0.0822,0.082,0.0819,0.0818,-0.0951,-0.0998,-0.105,-0.1114,-0.1165,-0.1219,-0.1241,-0.1224,-0.1188,-0.1047,-0.0908,-0.0597,-0.0099,0.0445,0.064,0.1097,0.1032,0.1241,0.129,0.1306,0.1441,0.0871,0.1037,0.1036,0.1035,0.1034,0.1033,0,-0.0982,-0.104,-0.1113,-0.1188,-0.1255,-0.1261,-0.1298,-0.1272,-0.1208,-0.1008,-0.0816,-0.0147,0.0348,0.0815,0.1406,0.1647,0.1699,0.1765,0.1847,0.1915,0.1433,0.1456,0.1714,0.1714,0.1714,0.1714,0.1713,0.1713,-0.0995,-0.108,-0.1121,-0.1235,-0.1289,-0.1335,-0.1347,-0.1272,-0.1121,-0.0725,-0.03,0.0068,0.077,0.1573,0.2121,0.2172,0.2392,0.235,0.2462,0.2145,0.21,0.2058,0.21,0.2488,0.2489,0.296,0.2965,0.2968]}],[{"header":{"parameterUnit":"m.s-1","parameterCategory":2,"la1":30.2991,"la2":30.254,"lo1":-89.0895,"lo2":-89.0444,"dy":0.0017,"dx":0.0017,"nx":28,"ny":28,"refTime":"2025-06-10T21:00:00:Z","depth":"2","parameterNumber":2,"parameterNumberName":"U-component_of_CURRENTS"},"data":[0,0,0,0,0,0,0,0,0,0,0,0,0,0,0,0,0,0,0,0,0,0,0,0,0,0,0,0,0,0,0,0,0,0,0,0,0,0,0,0,0,0,0,0,0,0,0,0,0,0,0,0,0,0,0,0,0,0,-0.2455,-0.2455,0,-0.2461,-0.2461,-0.2461,-0.2452,-0.2452,-0.2452,-0.2452,-0.2471,-0.2472,-0.2472,0,0,0,0,0,0,0,0,0,0,0,0,0,-0.2354,-0.2356,-0.2455,-0.2455,-0.2456,-0.2461,-0.2461,-0.246,-0.2452,-0.2452,-0.2452,-0.2452,-0.2471,-0.2472,-0.2472,0,0,0,0,0,0,0,0,0,0,0,0,0,-0.2378,-0.2356,-0.2455,-0.2456,-0.2456,-0.2461,-0.2461,-0.246,-0.2452,-0.2452,-0.2452,-0.2453,-0.2471,-0.2472,-0.2472,-0.2471,0,0,-0.2474,-0.2474,0,0,0,0,0,0,0,0,-0.2377,-0.2381,-0.2455,-0.2456,-0.2456,-0.246,-0.2432,-0.2466,-0.2452,-0.2448,-0.2452,-0.2453,-0.2472,-0.2472,-0.2466,-0.2472,-0.2473,-0.2474,-0.2474,-0.2474,-0.2475,0,0,0,0,0,0,0,-0.2375,-0.238,-0.2452,-0.2456,-0.2457,-0.2428,-0.2432,-0.2438,-0.2455,-0.2449,-0.2449,-0.2458,-0.2472,-0.2465,-0.2466,-0.2473,-0.2474,-0.2474,-0.2475,-0.2475,-0.259,-0.2593,0,0,0,0,0,0,-0.2389,-0.2379,-0.2452,-0.2453,-0.2422,-0.2431,-0.2435,-0.2455,-0.2455,-0.2456,-0.2458,-0.2458,-0.2464,-0.2466,-0.2467,-0.2538,-0.2474,-0.2475,-0.2475,-0.2587,-0.2591,-0.2594,0,0,0,0,0,0,-0.2387,-0.2396,-0.2452,-0.2419,-0.2425,-0.2434,-0.2455,-0.2455,-0.2454,-0.2463,-0.2463,-0.2458,-0.2464,-0.2466,-0.2517,-0.2536,-0.2475,-0.2476,-0.2584,-0.2588,-0.2592,-0.2634,0,0,0,0,0,0,-0.2384,-0.2395,-0.2404,-0.2421,-0.2428,-0.248,-0.2455,-0.2455,-0.2461,-0.2461,-0.2464,-0.2465,-0.2465,-0.2516,-0.2517,-0.2536,-0.2476,-0.2581,-0.2586,-0.2591,-0.263,-0.2639,-0.2648,0,0,0,0,0,-0.238,-0.2404,-0.2405,-0.2413,-0.2444,-0.2482,-0.2483,-0.2484,-0.2461,-0.2478,-0.2496,-0.2465,-0.2549,-0.2519,-0.252,-0.2539,-0.2578,-0.2585,-0.259,-0.2625,-0.2638,-0.2648,0,0,0,0,0,0,-0.2361,-0.2406,-0.2407,-0.2441,-0.2469,-0.2483,-0.249,-0.2486,-0.2506,-0.2505,-0.2498,-0.2504,-0.2558,-0.2552,-0.2518,-0.2594,-0.2559,-0.2565,-0.2585,-0.2596,-0.2605,-0.257,-0.2477,0,0,0,0,0,-0.2363,-0.2392,-0.2429,-0.2454,-0.2469,-0.2474,-0.2482,-0.2494,-0.2516,-0.2522,-0.2537,-0.2556,-0.2581,-0.2592,-0.2622,-0.2652,-0.2612,-0.2669,-0.2679,-0.2686,-0.2663,-0.2644,-0.2647,-0.2614,-0.2614,-0.2614,0,0,-0.236,-0.2387,-0.2402,-0.2451,-0.2461,-0.2496,-0.2479,-0.251,-0.2536,-0.2523,-0.2569,-0.2592,-0.2602,-0.2654,-0.2675,-0.2648,-0.268,-0.2694,-0.2699,-0.2672,-0.265,-0.2653,-0.2655,-0.2618,-0.2617,-0.2617,0,0,-0.2371,-0.2395,-0.2423,-0.2454,-0.2494,-0.2511,-0.2523,-0.2561,-0.2575,-0.2629,-0.2631,-0.2666,-0.2708,-0.2719,-0.2724,-0.2798,-0.2737,-0.2817,-0.2818,-0.2802,-0.2802,-0.2803,-0.276,-0.2756,-0.2811,-0.2811,-0.2811,0,-0.2361,-0.2404,-0.2435,-0.2473,-0.2495,-0.252,-0.2553,-0.2579,-0.2633,-0.2647,-0.266,-0.2719,-0.2732,-0.2759,-0.2793,-0.2812,-0.2784,-0.2769,-0.2808,-0.2807,-0.2806,-0.2763,-0.2757,-0.2813,-0.2813,-0.2813,-0.2813,0,-0.2396,-0.243,-0.2449,-0.2506,-0.254,-0.2576,-0.2625,-0.2665,-0.2686,-0.2706,-0.2759,-0.2789,-0.2811,-0.2835,-0.2831,-0.2844,-0.282,-0.2825,-0.2764,-0.2811,-0.2764,-0.2757,-0.2817,-0.2816,-0.2816,-0.2815,0,0,-0.2366,-0.2455,-0.2458,-0.2483,-0.2559,-0.2587,-0.2648,-0.2698,-0.2714,-0.2778,-0.2793,-0.285,-0.285,-0.2856,-0.2863,-0.2848,-0.2829,-0.2831,-0.2829,-0.2761,-0.2768,-0.2669,-0.2652,-0.2838,-0.2837,-0.2836,-0.2736,0,-0.2374,-0.2436,-0.2487,-0.2541,-0.2573,-0.2628,-0.2676,-0.2727,-0.2766,-0.2801,-0.2821,-0.285,-0.2862,-0.2868,-0.2861,-0.2846,-0.2814,-0.2853,-0.2756,-0.2752,-0.2635,-0.2643,-0.2454,-0.2342,-0.2729,-0.2728,-0.2727,0,-0.238,-0.2421,-0.2474,-0.2547,-0.2565,-0.2605,-0.2664,-0.2715,-0.2772,-0.2801,-0.283,-0.2848,-0.2853,-0.2852,-0.2816,-0.2841,-0.2797,-0.2774,-0.277,-0.2648,-0.2641,-0.2361,-0.2315,-0.2716,-0.2717,-0.2718,-0.2719,0,-0.2319,-0.2405,-0.2439,-0.2467,-0.2562,-0.2588,-0.2634,-0.2702,-0.2735,-0.2786,-0.2803,-0.2827,-0.2825,-0.2799,-0.2767,-0.2786,-0.2703,-0.2726,-0.2587,-0.258,-0.2381,-0.2356,-0.2666,-0.2667,-0.2667,-0.2667,-0.2667,0,-0.2296,-0.2318,-0.2409,-0.2427,-0.2458,-0.2542,-0.2576,-0.263,-0.2696,-0.2713,-0.2782,-0.2784,-0.2809,-0.2779,-0.2748,-0.2638,-0.2685,-0.2562,-0.2542,-0.2394,-0.2373,-0.2672,-0.2674,-0.2663,-0.2664,-0.2665,-0.2666,0,-0.2211,-0.2279,-0.2315,-0.2405,-0.2429,-0.2443,-0.253,-0.255,-0.2632,-0.2654,-0.2666,-0.2734,-0.2684,-0.2681,-0.2624,-0.2589,-0.2513,-0.2455,-0.2269,-0.2227,-0.2403,-0.2409,-0.2285,-0.228,-0.2277,-0.2273,-0.2271,0,-0.2164,-0.2178,-0.2266,-0.2275,-0.2309,-0.2353,-0.2378,-0.249,-0.2518,-0.2606,-0.2598,-0.259,-0.2535,-0.2433,-0.2351,-0.2242,-0.2364,-0.204,-0.2042,-0.2368,-0.2361,-0.2373,-0.2384,-0.1799,-0.1793,-0.1788,-0.1784,0,-0.2061,-0.2099,-0.213,-0.2155,-0.2179,-0.2212,-0.2263,-0.228,-0.2397,-0.242,-0.2421,-0.2385,-0.2284,-0.2094,-0.1984,-0.1914,-0.2051,-0.193,-0.2299,-0.1936,-0.1905,-0.1901,-0.1928,-0.1738,-0.1743,-0.1746,-0.1748,-0.175,-0.1959,-0.1954,-0.1999,-0.2006,-0.2035,-0.2039,-0.2013,-0.2076,-0.209,-0.2086,-0.217,-0.2057,-0.2026,-0.1734,-0.1621,-0.1544,-0.1691,-0.165,-0.1668,-0.1691,-0.1663,-0.1628,-0.1402,-0.1405,-0.1407,-0.1409,-0.1411,0,-0.1814,-0.1835,-0.1841,-0.1848,-0.1818,-0.1887,-0.1903,-0.185,-0.1797,-0.1822,-0.1785,-0.1579,-0.1427,-0.1398,-0.1186,-0.1146,-0.1153,-0.1117,-0.1141,-0.1186,-0.1226,-0.1179,-0.0787,-0.0785,-0.0784,-0.0782,0,0,-0.1731,-0.1705,-0.1715,-0.1623,-0.1621,-0.1529,-0.15,-0.1444,-0.1423,-0.133,-0.1279,-0.136,-0.1362,-0.1095,-0.1013,-0.0866,-0.1022,-0.0813,-0.131,-0.1383,-0.1422,-0.1522,-0.1497,0,0,0,0,0]},{"header":{"parameterUnit":"m.s-1","parameterCategory":2,"la1":30.2991,"la2":30.254,"lo1":-89.0895,"lo2":-89.0444,"dy":0.0017,"dx":0.0017,"nx":28,"ny":28,"refTime":"2025-06-10T21:00:00:Z","depth":"2","parameterNumber":3,"parameterNumberName":"V-component_of_CURRENTS"},"data":[0,0,0,0,0,0,0,0,0,0,0,0,0,0,0,0,0,0,0,0,0,0,0,0,0,0,0,0,0,0,0,0,0,0,0,0,0,0,0,0,0,0,0,0,0,0,0,0,0,0,0,0,0,0,0,0,0,0,-0.0272,-0.0272,0,-0.0216,-0.0216,-0.0215,-0.0156,-0.0155,-0.0154,-0.0154,-0.0021,-0.0018,-0.0016,0,0,0,0,0,0,0,0,0,0,0,0,0,-0.0296,-0.0296,-0.0272,-0.0272,-0.0271,-0.0216,-0.0215,-0.0215,-0.0156,-0.0155,-0.0154,-0.0153,-0.0022,-0.0019,-0.0015,0,0,0,0,0,0,0,0,0,0,0,0,0,-0.0267,-0.0296,-0.0272,-0.0236,-0.0232,-0.0217,-0.0215,-0.0214,-0.0156,-0.0155,-0.0154,-0.0153,-0.0023,-0.0019,-0.0015,-0.0011,0,0,-0.0002,-0.0,0,0,0,0,0,0,0,0,-0.0269,-0.0266,-0.0242,-0.0238,-0.0234,-0.0193,-0.0175,-0.0143,-0.0156,-0.0184,-0.0154,-0.0152,-0.0073,-0.0064,-0.0056,-0.0005,0.0,-0.0002,0.0001,0.0003,0.0004,0,0,0,0,0,0,0,-0.0271,-0.0268,-0.0249,-0.0241,-0.0237,-0.0211,-0.0206,-0.0169,-0.0133,-0.0182,-0.0177,-0.0173,-0.007,-0.0061,-0.0053,0.0002,-0.0002,0.0002,0.0005,0.0006,0.012,0.012,0,0,0,0,0,0,-0.0283,-0.027,-0.0251,-0.0248,-0.025,-0.0212,-0.0206,-0.0206,-0.0135,-0.0124,-0.0174,-0.017,-0.0068,-0.0058,-0.0048,-0.001,0.0003,0.0007,0.0009,0.0119,0.012,0.012,0,0,0,0,0,0,-0.0283,-0.0282,-0.0253,-0.0258,-0.0253,-0.0213,-0.0214,-0.0206,-0.0191,-0.013,-0.0117,-0.0166,-0.0067,-0.0054,-0.0003,-0.0005,0.0009,0.0012,0.0119,0.0119,0.012,0.0048,0,0,0,0,0,0,-0.0284,-0.0282,-0.0289,-0.0259,-0.0253,-0.0249,-0.0215,-0.0206,-0.0191,-0.0185,-0.012,-0.0107,-0.0065,-0.001,0.0001,0.0001,0.0016,0.0118,0.0119,0.012,0.0049,0.0046,0.0043,0,0,0,0,0,-0.0286,-0.0305,-0.029,-0.0288,-0.0263,-0.025,-0.0245,-0.0211,-0.0192,-0.0192,-0.0137,-0.0109,0.0004,-0.0006,0.0007,0.0008,0.0118,0.0119,0.012,0.0051,0.0046,0.0043,0,0,0,0,0,0,-0.0321,-0.03,-0.0283,-0.0295,-0.0274,-0.024,-0.0242,-0.0217,-0.0177,-0.0168,-0.0104,-0.0087,-0.0043,-0.0006,-0.0019,0.0045,0.0066,0.0069,0.0009,0.0006,0.0002,-0.0017,0.0019,0,0,0,0,0,-0.0333,-0.034,-0.0311,-0.0321,-0.0313,-0.0277,-0.0268,-0.0246,-0.0207,-0.0189,-0.0139,-0.0082,-0.0031,-0.0004,0.0043,0.0073,0.0114,0.0085,0.0081,0.0078,0.0073,0.0139,0.014,0.0124,0.0124,0.0124,0,0,-0.0349,-0.0339,-0.0343,-0.0328,-0.031,-0.031,-0.0269,-0.0262,-0.0252,-0.0181,-0.0148,-0.0093,-0.0025,0.0014,0.0037,0.0046,0.0104,0.0079,0.0076,0.0073,0.014,0.0141,0.0143,0.0124,0.0124,0.0124,0,0,-0.0393,-0.0376,-0.0399,-0.0385,-0.0365,-0.034,-0.034,-0.0303,-0.0276,-0.0243,-0.0181,-0.0125,-0.006,-0.0005,0.0029,0.0036,0.0084,0.005,0.0016,0.0079,0.0081,0.0083,0.0127,0.0134,0.0047,0.0047,0.0047,0,-0.0413,-0.0433,-0.0403,-0.0418,-0.041,-0.0357,-0.0372,-0.034,-0.0289,-0.0262,-0.0242,-0.0126,-0.0069,-0.0008,-0.0002,0.0027,0.0064,0.0021,0.0073,0.0076,0.0079,0.0124,0.0132,0.0044,0.0044,0.0044,0.0045,0,-0.0473,-0.0481,-0.0493,-0.049,-0.0478,-0.0482,-0.0435,-0.0411,-0.037,-0.0329,-0.0262,-0.018,-0.0111,-0.0083,-0.0041,0.0012,0.0031,0.0059,0.0076,0.0076,0.0124,0.0134,0.0039,0.004,0.0041,0.0042,0,0,-0.053,-0.0536,-0.0538,-0.0545,-0.0515,-0.0514,-0.0491,-0.0453,-0.0433,-0.0369,-0.0332,-0.0238,-0.0188,-0.0144,-0.0078,-0.0021,0.0033,0.002,0.0025,0.005,0.016,0.0198,0.0212,0.0069,0.0071,0.0072,0.0181,0,-0.0582,-0.0631,-0.0611,-0.0637,-0.0652,-0.0594,-0.0578,-0.0533,-0.0475,-0.0425,-0.0326,-0.0269,-0.0212,-0.0179,-0.0113,0.0001,0.0057,0.0,0.0169,0.0174,0.0197,0.0225,0.0213,0.0312,0.0191,0.0192,0.0194,0,-0.0645,-0.0665,-0.071,-0.0706,-0.0706,-0.0708,-0.0666,-0.0645,-0.0554,-0.0507,-0.0428,-0.0349,-0.0249,-0.0204,-0.0026,-0.0067,0.0036,0.0122,0.0128,0.0195,0.023,0.0298,0.0335,0.021,0.0209,0.0208,0.0207,0,-0.0705,-0.073,-0.0768,-0.0767,-0.0756,-0.0755,-0.074,-0.0671,-0.0649,-0.0556,-0.0524,-0.0397,-0.0329,-0.0188,-0.0009,-0.0018,0.0189,0.0201,0.0331,0.0334,0.0374,0.0379,0.0326,0.0326,0.0325,0.0325,0.0325,0,-0.0766,-0.0793,-0.0801,-0.082,-0.0853,-0.0819,-0.0828,-0.0786,-0.0724,-0.0694,-0.0574,-0.0512,-0.032,-0.0175,-0.0023,0.0188,0.0182,0.0332,0.0372,0.0349,0.0349,0.0302,0.0298,0.0329,0.0328,0.0327,0.0327,0,-0.0824,-0.0832,-0.0874,-0.088,-0.0886,-0.0908,-0.0902,-0.09,-0.083,-0.0785,-0.076,-0.0593,-0.0399,-0.0198,0.0045,0.0173,0.0367,0.0444,0.0395,0.0428,0.0466,0.0457,0.0585,0.0587,0.0589,0.0591,0.0592,0,-0.0859,-0.0888,-0.0926,-0.0958,-0.0965,-0.0991,-0.1007,-0.096,-0.0951,-0.0824,-0.0804,-0.0612,-0.045,-0.0087,0.0168,0.0438,0.0437,0.0577,0.0564,0.047,0.0497,0.0484,0.0473,0.0585,0.0587,0.0588,0.0588,0,-0.0913,-0.0925,-0.0959,-0.1029,-0.1064,-0.1101,-0.1115,-0.1125,-0.1052,-0.0975,-0.0833,-0.0689,-0.034,-0.0026,0.0314,0.0469,0.0528,0.0606,0.0548,0.0517,0.0479,0.0502,0.0489,0.0598,0.0597,0.0596,0.0595,0.0595,-0.094,-0.0981,-0.1028,-0.1091,-0.1141,-0.119,-0.1211,-0.1189,-0.1144,-0.0997,-0.0855,-0.0571,-0.0303,0.0215,0.0431,0.0638,0.0632,0.0696,0.069,0.0683,0.0659,0.0627,0.0768,0.0768,0.0768,0.0768,0.0768,0,-0.0965,-0.1017,-0.1086,-0.1159,-0.1223,-0.1231,-0.1261,-0.1236,-0.1162,-0.0968,-0.0773,-0.0404,-0.0043,0.0236,0.0574,0.0755,0.0726,0.0779,0.071,0.0701,0.0693,0.0666,0.0779,0.0779,0.0779,0.0779,0,0,-0.0979,-0.1052,-0.109,-0.1203,-0.1256,-0.1302,-0.1312,-0.1235,-0.1096,-0.0883,-0.0637,-0.0332,0.0008,0.0249,0.0467,0.0636,0.0612,0.0646,0.0623,0.0506,0.0496,0.0641,0.0589,0,0,0,0,0]}],[{"header":{"parameterUnit":"m.s-1","parameterCategory":2,"la1":30.2991,"la2":30.254,"lo1":-89.0895,"lo2":-89.0444,"dy":0.0017,"dx":0.0017,"nx":28,"ny":28,"refTime":"2025-06-10T21:00:00:Z","depth":"4","parameterNumber":2,"parameterNumberName":"U-component_of_CURRENTS"},"data":[0,0,0,0,0,0,0,0,0,0,0,0,0,0,0,0,0,0,0,0,0,0,0,0,0,0,0,0,0,0,0,0,0,0,0,0,0,0,0,0,0,0,0,0,0,0,0,0,0,0,0,0,0,0,0,0,0,0,-0.1693,-0.1694,0,-0.1696,-0.1696,-0.1695,-0.1731,-0.1732,-0.1733,-0.1734,-0.1793,-0.1793,-0.1794,0,0,0,0,0,0,0,0,0,0,0,0,0,-0.1616,-0.1618,-0.1693,-0.1694,-0.1694,-0.1696,-0.1696,-0.1695,-0.173,-0.1732,-0.1733,-0.1735,-0.1793,-0.1793,-0.1794,0,0,0,0,0,0,0,0,0,0,0,0,0,-0.1634,-0.1618,-0.1693,-0.1715,-0.1717,-0.1696,-0.1695,-0.1695,-0.173,-0.1732,-0.1734,-0.1736,-0.1793,-0.1793,-0.1794,-0.176,0,0,-0.1796,-0.1796,0,0,0,0,0,0,0,0,-0.1633,-0.1636,-0.1711,-0.1713,-0.1716,-0.1718,-0.169,-0.1721,-0.173,-0.1721,-0.1734,-0.1737,-0.1774,-0.1777,-0.1766,-0.1762,-0.1765,-0.1796,-0.1796,-0.1796,-0.1797,0,0,0,0,0,0,0,-0.1632,-0.1636,-0.169,-0.1712,-0.1714,-0.1689,-0.1694,-0.1695,-0.1735,-0.1722,-0.1725,-0.1731,-0.1776,-0.1766,-0.1768,-0.1766,-0.1796,-0.1796,-0.1797,-0.1797,-0.1886,-0.1887,0,0,0,0,0,0,-0.1643,-0.1635,-0.169,-0.1691,-0.1683,-0.169,-0.1695,-0.1712,-0.1734,-0.174,-0.173,-0.1733,-0.1764,-0.1768,-0.1771,-0.1862,-0.1796,-0.1797,-0.1797,-0.1884,-0.1886,-0.1888,0,0,0,0,0,0,-0.1641,-0.1648,-0.169,-0.1665,-0.167,-0.1691,-0.1708,-0.1712,-0.1734,-0.174,-0.1747,-0.1753,-0.1765,-0.177,-0.1813,-0.186,-0.1797,-0.1798,-0.1881,-0.1884,-0.1887,-0.1961,0,0,0,0,0,0,-0.1639,-0.1648,-0.1671,-0.1667,-0.1672,-0.1703,-0.1707,-0.171,-0.1734,-0.1739,-0.1761,-0.1767,-0.1767,-0.1813,-0.1814,-0.1859,-0.1798,-0.1879,-0.1883,-0.1886,-0.1956,-0.1966,-0.1975,0,0,0,0,0,-0.1637,-0.1658,-0.1673,-0.168,-0.1702,-0.1704,-0.1704,-0.1721,-0.1734,-0.1746,-0.1774,-0.1768,-0.1838,-0.1814,-0.1815,-0.1862,-0.1877,-0.1882,-0.1886,-0.1952,-0.1964,-0.1974,0,0,0,0,0,0,-0.1635,-0.1663,-0.168,-0.171,-0.172,-0.1712,-0.1724,-0.1733,-0.1759,-0.1774,-0.1782,-0.179,-0.1846,-0.1841,-0.1815,-0.1901,-0.186,-0.1865,-0.191,-0.1922,-0.1931,-0.1941,-0.1799,0,0,0,0,0,-0.1646,-0.1675,-0.1689,-0.1716,-0.1722,-0.1727,-0.1734,-0.1745,-0.1762,-0.1775,-0.1798,-0.1827,-0.1856,-0.1881,-0.1896,-0.1935,-0.1914,-0.197,-0.1979,-0.1987,-0.1998,-0.2012,-0.2023,-0.1903,-0.1903,-0.1903,0,0,-0.1655,-0.1673,-0.1693,-0.1718,-0.1724,-0.1746,-0.1736,-0.1753,-0.1791,-0.1777,-0.1843,-0.1854,-0.1872,-0.1924,-0.195,-0.1934,-0.2007,-0.1993,-0.2,-0.2006,-0.2018,-0.2029,-0.204,-0.1906,-0.1906,-0.1905,0,0,-0.1664,-0.1701,-0.172,-0.1736,-0.1757,-0.1768,-0.1782,-0.1796,-0.1827,-0.1873,-0.1886,-0.1936,-0.1966,-0.2003,-0.2021,-0.2091,-0.2051,-0.2095,-0.2158,-0.2172,-0.2182,-0.219,-0.2158,-0.2163,-0.2107,-0.2107,-0.2107,0,-0.1675,-0.1706,-0.1723,-0.1742,-0.177,-0.1787,-0.1815,-0.1841,-0.1878,-0.1912,-0.1912,-0.1991,-0.2011,-0.2086,-0.212,-0.2115,-0.2091,-0.2111,-0.2183,-0.2191,-0.2198,-0.2163,-0.2168,-0.2111,-0.2111,-0.211,-0.211,0,-0.1684,-0.1727,-0.1737,-0.1784,-0.1814,-0.1839,-0.1883,-0.1928,-0.1968,-0.1994,-0.2074,-0.21,-0.215,-0.217,-0.2169,-0.2242,-0.2195,-0.2185,-0.215,-0.2215,-0.2174,-0.2177,-0.2117,-0.2116,-0.2114,-0.2113,0,0,-0.1661,-0.1734,-0.1741,-0.1779,-0.1844,-0.1864,-0.1946,-0.2013,-0.2065,-0.2118,-0.2182,-0.2257,-0.2265,-0.2287,-0.2296,-0.2322,-0.2352,-0.2281,-0.228,-0.2241,-0.2343,-0.2169,-0.2154,-0.2346,-0.2348,-0.2349,-0.2285,0,-0.1666,-0.1717,-0.1761,-0.1834,-0.1866,-0.1934,-0.2005,-0.2075,-0.2131,-0.2194,-0.225,-0.2303,-0.2311,-0.2332,-0.2368,-0.2355,-0.2368,-0.2368,-0.2294,-0.2291,-0.2123,-0.2156,-0.2354,-0.2287,-0.2288,-0.2288,-0.2289,0,-0.1645,-0.1697,-0.1765,-0.187,-0.1891,-0.1948,-0.2066,-0.2127,-0.2225,-0.2266,-0.2338,-0.2358,-0.2431,-0.2409,-0.244,-0.2433,-0.2401,-0.2381,-0.2378,-0.2194,-0.2123,-0.2216,-0.2294,-0.2293,-0.2293,-0.2293,-0.2292,0,-0.1594,-0.1693,-0.1758,-0.1794,-0.1914,-0.1976,-0.2046,-0.2152,-0.2205,-0.2306,-0.2336,-0.2418,-0.2444,-0.2451,-0.243,-0.2433,-0.2417,-0.2412,-0.2223,-0.2208,-0.2352,-0.2344,-0.2421,-0.2421,-0.2421,-0.2422,-0.2422,0,-0.1559,-0.1607,-0.1746,-0.1779,-0.1866,-0.196,-0.2047,-0.2126,-0.2224,-0.2267,-0.2363,-0.2386,-0.2455,-0.2453,-0.2433,-0.2323,-0.2421,-0.2229,-0.2187,-0.238,-0.2377,-0.2351,-0.2344,-0.2419,-0.242,-0.242,-0.2421,0,-0.1462,-0.1553,-0.1637,-0.1791,-0.1838,-0.1898,-0.2029,-0.2074,-0.2187,-0.2242,-0.2271,-0.2365,-0.2345,-0.2368,-0.2355,-0.2293,-0.2228,-0.2162,-0.2339,-0.2309,-0.2005,-0.2003,-0.1942,-0.1935,-0.1929,-0.1925,-0.1921,0,-0.1402,-0.1441,-0.1623,-0.1669,-0.174,-0.1842,-0.1896,-0.2035,-0.2074,-0.2201,-0.2201,-0.2234,-0.2266,-0.2102,-0.2155,-0.2076,-0.2057,-0.2016,-0.2044,-0.1994,-0.196,-0.1967,-0.1972,-0.1912,-0.1911,-0.1909,-0.1908,0,-0.1298,-0.1387,-0.1469,-0.1573,-0.165,-0.1719,-0.1809,-0.1822,-0.196,-0.2082,-0.2059,-0.2039,-0.1999,-0.1976,-0.1915,-0.1876,-0.2048,-0.1958,-0.197,-0.1996,-0.1958,-0.1931,-0.1943,-0.1889,-0.1891,-0.1893,-0.1894,0,-0.1222,-0.1262,-0.1383,-0.1456,-0.154,-0.156,-0.1633,-0.167,-0.1726,-0.1873,-0.1855,-0.1893,-0.1971,-0.1867,-0.1826,-0.1755,-0.1732,-0.1698,-0.1723,-0.1745,-0.1711,-0.1635,-0.1425,0,0,0,0,0,-0.1135,-0.1169,-0.1242,-0.1324,-0.1395,-0.1438,-0.1552,-0.1628,-0.1763,-0.1689,-0.1768,-0.1721,-0.1656,-0.1687,-0.1565,-0.1724,-0.1735,-0.1578,-0.1709,-0.1782,-0.1804,-0.1783,0,0,0,0,0,0,-0.1083,-0.1147,-0.1202,-0.1183,-0.1196,-0.1257,-0.1318,-0.142,-0.1395,-0.1534,-0.1497,-0.1609,-0.1557,-0.1672,-0.1523,-0.1528,-0.1574,-0.1614,-0.1609,-0.1769,-0.179,-0.1807,-0.1793,0,0,0,0,0]},{"header":{"parameterUnit":"m.s-1","parameterCategory":2,"la1":30.2991,"la2":30.254,"lo1":-89.0895,"lo2":-89.0444,"dy":0.0017,"dx":0.0017,"nx":28,"ny":28,"refTime":"2025-06-10T21:00:00:Z","depth":"4","parameterNumber":3,"parameterNumberName":"V-component_of_CURRENTS"},"data":[0,0,0,0,0,0,0,0,0,0,0,0,0,0,0,0,0,0,0,0,0,0,0,0,0,0,0,0,0,0,0,0,0,0,0,0,0,0,0,0,0,0,0,0,0,0,0,0,0,0,0,0,0,0,0,0,0,0,-0.0262,-0.0262,0,-0.0258,-0.0258,-0.0258,-0.0221,-0.0221,-0.022,-0.0219,-0.0176,-0.0176,-0.0175,0,0,0,0,0,0,0,0,0,0,0,0,0,-0.0249,-0.025,-0.0262,-0.0262,-0.0262,-0.0258,-0.0258,-0.0258,-0.0222,-0.0221,-0.0219,-0.0219,-0.0176,-0.0176,-0.0175,0,0,0,0,0,0,0,0,0,0,0,0,0,-0.0251,-0.025,-0.0262,-0.0244,-0.0243,-0.0258,-0.0258,-0.0258,-0.0222,-0.022,-0.0219,-0.0218,-0.0176,-0.0176,-0.0175,-0.0197,0,0,-0.0173,-0.0173,0,0,0,0,0,0,0,0,-0.025,-0.0251,-0.0247,-0.0245,-0.0244,-0.0239,-0.0237,-0.0236,-0.0222,-0.0229,-0.0219,-0.0217,-0.0195,-0.0193,-0.0195,-0.0195,-0.0194,-0.0173,-0.0173,-0.0173,-0.0173,0,0,0,0,0,0,0,-0.025,-0.0251,-0.026,-0.0247,-0.0245,-0.0239,-0.0238,-0.0237,-0.0218,-0.0228,-0.0226,-0.0227,-0.0193,-0.0195,-0.0193,-0.0193,-0.0173,-0.0173,-0.0173,-0.0172,-0.0146,-0.0146,0,0,0,0,0,0,-0.0253,-0.0251,-0.026,-0.026,-0.0244,-0.0241,-0.0239,-0.0242,-0.0219,-0.0215,-0.0228,-0.0225,-0.0197,-0.0194,-0.0191,-0.0179,-0.0173,-0.0172,-0.0172,-0.0147,-0.0146,-0.0146,0,0,0,0,0,0,-0.0253,-0.0254,-0.026,-0.0256,-0.0256,-0.0242,-0.0245,-0.0242,-0.0241,-0.0219,-0.0213,-0.0229,-0.0196,-0.0192,-0.018,-0.0178,-0.0172,-0.0172,-0.0147,-0.0146,-0.0146,-0.0178,0,0,0,0,0,0,-0.0252,-0.0254,-0.0261,-0.0256,-0.0256,-0.0273,-0.0247,-0.0243,-0.0244,-0.024,-0.0219,-0.0213,-0.0194,-0.0181,-0.0179,-0.0178,-0.0171,-0.0147,-0.0147,-0.0146,-0.0178,-0.0179,-0.018,0,0,0,0,0,-0.0252,-0.0271,-0.0261,-0.0263,-0.0265,-0.0274,-0.0274,-0.0259,-0.0245,-0.0252,-0.0226,-0.0214,-0.0174,-0.0181,-0.0179,-0.0177,-0.0148,-0.0147,-0.0146,-0.0177,-0.0179,-0.018,0,0,0,0,0,0,-0.0272,-0.0269,-0.0258,-0.0276,-0.0274,-0.0268,-0.0278,-0.0266,-0.0254,-0.0249,-0.0219,-0.0213,-0.0198,-0.0185,-0.0192,-0.0164,-0.0156,-0.0155,-0.018,-0.0181,-0.0182,-0.0176,-0.0171,0,0,0,0,0,-0.028,-0.0291,-0.0284,-0.0299,-0.03,-0.0289,-0.0292,-0.0284,-0.0272,-0.0265,-0.0247,-0.0221,-0.0196,-0.0186,-0.0169,-0.0166,-0.0126,-0.0158,-0.016,-0.0161,-0.0152,-0.0083,-0.0076,-0.0143,-0.0143,-0.0143,0,0,-0.0292,-0.0292,-0.0298,-0.0303,-0.0301,-0.0312,-0.0288,-0.0299,-0.0298,-0.0264,-0.0258,-0.0231,-0.0195,-0.0181,-0.0173,-0.0169,-0.0123,-0.016,-0.0161,-0.0152,-0.0081,-0.0074,-0.0069,-0.0142,-0.0142,-0.0142,0,0,-0.0328,-0.0322,-0.0344,-0.0344,-0.0347,-0.0338,-0.0342,-0.0337,-0.0323,-0.0322,-0.028,-0.0244,-0.0235,-0.0188,-0.0167,-0.0165,-0.0132,-0.0168,-0.0171,-0.0104,-0.0097,-0.0091,-0.0044,-0.0034,-0.0169,-0.0169,-0.0169,0,-0.0343,-0.0364,-0.0353,-0.0371,-0.0373,-0.035,-0.0369,-0.0357,-0.0345,-0.0328,-0.0325,-0.026,-0.023,-0.0178,-0.017,-0.0166,-0.0133,-0.0172,-0.0105,-0.0098,-0.0091,-0.0044,-0.0032,-0.017,-0.017,-0.017,-0.017,0,-0.0392,-0.0405,-0.0419,-0.0427,-0.0429,-0.0444,-0.0422,-0.0416,-0.0398,-0.0374,-0.0331,-0.0282,-0.0238,-0.0221,-0.0196,-0.0132,-0.0127,-0.0115,-0.0103,-0.0086,-0.0038,-0.0025,-0.0172,-0.0172,-0.0171,-0.0171,0,0,-0.043,-0.045,-0.0454,-0.0463,-0.0458,-0.0468,-0.0458,-0.0438,-0.0424,-0.0393,-0.0363,-0.0297,-0.0262,-0.0232,-0.0188,-0.0124,-0.0048,-0.0105,-0.0101,-0.0061,0.0086,0.0072,0.0086,-0.0029,-0.0027,-0.0025,0.0096,0,-0.0469,-0.0516,-0.0509,-0.054,-0.0557,-0.0526,-0.052,-0.0494,-0.0461,-0.0427,-0.0347,-0.0311,-0.0269,-0.0249,-0.0174,-0.0082,-0.0013,-0.0082,0.0068,0.0072,0.0056,0.0101,-0.0017,0.0106,0.0109,0.0112,0.0113,0,-0.0515,-0.0538,-0.0582,-0.059,-0.0595,-0.0607,-0.0584,-0.0575,-0.0507,-0.0478,-0.0411,-0.0356,-0.0254,-0.0228,-0.0049,-0.0101,-0.0006,0.0069,0.0076,0.0087,0.0084,0.0091,0.0138,0.0136,0.0134,0.0132,0.0131,0,-0.0549,-0.0584,-0.0621,-0.0625,-0.0633,-0.064,-0.064,-0.0593,-0.0581,-0.0507,-0.0485,-0.0366,-0.0308,-0.0172,-0.0017,-0.0034,0.0179,0.0175,0.0257,0.0257,0.0245,0.0237,0.0317,0.0317,0.0317,0.0316,0.0316,0,-0.0584,-0.0613,-0.0645,-0.0663,-0.0702,-0.0688,-0.0706,-0.0679,-0.0636,-0.0611,-0.0516,-0.0458,-0.029,-0.0154,-0.0017,0.0161,0.0184,0.0274,0.0298,0.0225,0.0215,0.0253,0.0244,0.0321,0.032,0.0319,0.0318,0,-0.061,-0.0632,-0.0679,-0.0708,-0.0723,-0.075,-0.0769,-0.0771,-0.0722,-0.0684,-0.0664,-0.0519,-0.0343,-0.0167,0.0062,0.0155,0.0328,0.039,0.0296,0.031,0.0357,0.0345,0.0483,0.0484,0.0484,0.0485,0.0485,0,-0.0624,-0.0652,-0.0719,-0.0758,-0.0777,-0.0818,-0.0842,-0.0819,-0.081,-0.0708,-0.0683,-0.0519,-0.0404,-0.008,0.0091,0.0345,0.038,0.0452,0.0415,0.037,0.0379,0.0366,0.0353,0.0486,0.0486,0.0487,0.0487,0,-0.0642,-0.0675,-0.0716,-0.08,-0.0849,-0.0893,-0.0919,-0.092,-0.087,-0.0829,-0.0668,-0.0498,-0.0296,-0.0068,0.0128,0.031,0.039,0.0459,0.0458,0.0424,0.0376,0.0381,0.0368,0.0489,0.0489,0.0489,0.0488,0,-0.0651,-0.0693,-0.0759,-0.0827,-0.0898,-0.0941,-0.0956,-0.0917,-0.0893,-0.077,-0.0712,-0.0481,-0.0346,-0.0083,0.0104,0.0271,0.0302,0.0338,0.0344,0.0343,0.0258,0.0174,0.0263,0,0,0,0,0,-0.0649,-0.0703,-0.0778,-0.0856,-0.0927,-0.0961,-0.0988,-0.0986,-0.0939,-0.0825,-0.0763,-0.0561,-0.0263,-0.0126,0.0042,0.0081,0.0299,0.0277,0.0334,0.0502,0.0499,0.0421,0,0,0,0,0,0,-0.0653,-0.0727,-0.0775,-0.0861,-0.0915,-0.0979,-0.0999,-0.0971,-0.0894,-0.0817,-0.0647,-0.0537,-0.0245,-0.0349,0.0045,0.0095,0.0147,0.0425,0.0428,0.0503,0.0501,0.0499,0.0418,0,0,0,0,0]}]]